• In Hungary
  • List of Countries
  • For 7 days
  • Water Temperature
  • Satellite Maps
  • Weather Map
  • News
  • Weather Widgets
  • user-avatar
    Login

    Hourly Weather Strzyzowiec

    Today, 12 December, Tuesday

    Time Temperature Precipitation Wind Pressure Humidity
    00:00 +4°C° 0 mm 6 mps 733 mmHg 80%
    01:00 +5°C° 0 mm 6 mps 733 mmHg 79%
    02:00 +5°C° 0 mm 4 mps 732 mmHg 83%
    03:00 +6°C° 0 mm 5 mps 732 mmHg 82%
    04:00 +5°C° 0 mm 6 mps 733 mmHg 81%
    05:00 +5°C° 0 mm 7 mps 733 mmHg 81%
    06:00 +5°C° 0 mm 7 mps 733 mmHg 80%
    07:00 +5°C° 0 mm 6 mps 733 mmHg 80%
    08:00 +5°C° 0 mm 4 mps 733 mmHg 87%
    09:00 +6°C° 0 mm 5 mps 733 mmHg 82%
    10:00 +7°C° 0 mm 6 mps 734 mmHg 78%
    11:00 +9°C° 0 mm 7 mps 734 mmHg 74%
    12:00 +9°C° 0 mm 7 mps 735 mmHg 72%
    13:00 +10°C° 0 mm 7 mps 735 mmHg 70%
    14:00 +11°C° 0 mm 7 mps 736 mmHg 69%
    15:00 +10°C° 0 mm 6 mps 736 mmHg 73%
    16:00 +9°C° 0 mm 6 mps 737 mmHg 77%
    17:00 +8°C° 0 mm 6 mps 737 mmHg 80%
    18:00 +8°C° 0 mm 6 mps 738 mmHg 81%
    19:00 +7°C° 0 mm 6 mps 738 mmHg 82%
    20:00 +7°C° 0 mm 5 mps 739 mmHg 83%
    21:00 +6°C° 0 mm 5 mps 740 mmHg 79%
    22:00 +6°C° 0 mm 5 mps 740 mmHg 76%
    23:00 +6°C° 0 mm 5 mps 741 mmHg 72%

    Tomorrow, 13 December, Wednesday

    Time Temperature Precipitation Wind Pressure Humidity
    00:00 +5°C° 0.3 mm 5 mps 742 mmHg 71%
    01:00 +4°C° 0.3 mm 4 mps 742 mmHg 70%
    02:00 +4°C° 0.3 mm 3 mps 743 mmHg 70%
    03:00 +3°C° 0.5 mm 3 mps 743 mmHg 71%
    04:00 +3°C° 0.5 mm 3 mps 744 mmHg 72%
    05:00 +4°C° 0.5 mm 2 mps 744 mmHg 73%
    06:00 +3°C° 0.2 mm 2 mps 744 mmHg 74%
    07:00 +3°C° 0.2 mm 2 mps 745 mmHg 76%
    08:00 +3°C° 0.2 mm 2 mps 745 mmHg 77%
    09:00 +3°C° 0.1 mm 2 mps 745 mmHg 77%
    10:00 +3°C° 0.1 mm 2 mps 746 mmHg 77%
    11:00 +3°C° 0.1 mm 2 mps 746 mmHg 77%
    12:00 +3°C° 0 mm 2 mps 746 mmHg 76%
    13:00 +3°C° 0 mm 2 mps 745 mmHg 75%
    14:00 +3°C° 0 mm 2 mps 745 mmHg 74%
    15:00 +4°C° 0 mm 1 mps 745 mmHg 77%
    16:00 +3°C° 0 mm 1 mps 745 mmHg 80%
    17:00 +2°C° 0 mm 1 mps 744 mmHg 83%
    18:00 +2°C° 0 mm 1 mps 744 mmHg 84%
    19:00 +2°C° 0 mm 1 mps 744 mmHg 85%
    20:00 +1°C° 0 mm 1 mps 744 mmHg 87%
    21:00 +1°C° 0 mm 1 mps 743 mmHg 88%
    22:00 +1°C° 0 mm 1 mps 743 mmHg 89%
    23:00 -1°C° 0 mm 2 mps 742 mmHg 89%

    Day after tomorrow, 14 December, Thursday

    Time Temperature Precipitation Wind Pressure Humidity
    00:00 -1°C° 0 mm 2 mps 741 mmHg 90%
    01:00 -1°C° 0 mm 3 mps 741 mmHg 91%
    02:00 -1°C° 0 mm 3 mps 740 mmHg 91%
    03:00 -1°C° 0 mm 3 mps 739 mmHg 91%
    04:00 -2°C° 0 mm 4 mps 738 mmHg 91%
    05:00 -2°C° 0 mm 4 mps 737 mmHg 91%
    06:00 -2°C° 0 mm 5 mps 737 mmHg 87%
    07:00 -2°C° 0 mm 5 mps 736 mmHg 83%
    08:00 -1°C° 0 mm 5 mps 736 mmHg 79%
    09:00 -1°C° 0 mm 6 mps 735 mmHg 76%
    10:00 0°C° 0 mm 7 mps 735 mmHg 72%
    11:00 0°C° 0 mm 7 mps 734 mmHg 68%
    12:00 +2°C° 0.1 mm 7 mps 734 mmHg 69%
    13:00 +2°C° 0.1 mm 7 mps 734 mmHg 70%
    14:00 +3°C° 0.1 mm 7 mps 734 mmHg 71%
    15:00 +2°C° 0 mm 7 mps 734 mmHg 74%
    16:00 +1°C° 0 mm 6 mps 734 mmHg 76%
    17:00 +1°C° 0 mm 6 mps 734 mmHg 78%
    18:00 +1°C° 0 mm 6 mps 734 mmHg 75%
    19:00 0°C° 0 mm 7 mps 735 mmHg 73%
    20:00 0°C° 0 mm 7 mps 735 mmHg 70%
    21:00 -1°C° 0 mm 6 mps 736 mmHg 73%
    22:00 -1°C° 0 mm 6 mps 736 mmHg 75%
    23:00 -1°C° 0 mm 5 mps 737 mmHg 77%

    15 December, Friday

    Time Temperature Precipitation Wind Pressure Humidity
    00:00 -1°C° 0 mm 4 mps 736 mmHg 79%
    01:00 -1°C° 0 mm 4 mps 736 mmHg 82%
    02:00 0°C° 0 mm 3 mps 736 mmHg 84%
    03:00 -1°C° 0 mm 4 mps 735 mmHg 82%
    04:00 -1°C° 0 mm 4 mps 734 mmHg 79%
    05:00 -1°C° 0 mm 4 mps 734 mmHg 77%
    06:00 -1°C° 0 mm 5 mps 733 mmHg 77%
    07:00 0°C° 0 mm 5 mps 733 mmHg 77%
    08:00 -1°C° 0 mm 6 mps 732 mmHg 77%
    09:00 +1°C° 0 mm 5 mps 732 mmHg 76%
    10:00 +2°C° 0 mm 5 mps 731 mmHg 75%
    11:00 +3°C° 0 mm 5 mps 731 mmHg 74%
    12:00 +3°C° 0.1 mm 5 mps 731 mmHg 77%
    13:00 +4°C° 0.1 mm 4 mps 730 mmHg 80%
    14:00 +4°C° 0.1 mm 4 mps 730 mmHg 83%
    15:00 +4°C° 0.7 mm 4 mps 730 mmHg 83%
    16:00 +3°C° 0.7 mm 4 mps 731 mmHg 84%
    17:00 +3°C° 0.7 mm 4 mps 731 mmHg 84%
    18:00 +3°C° 0.1 mm 4 mps 731 mmHg 81%
    19:00 +1°C° 0.1 mm 4 mps 732 mmHg 78%
    20:00 +1°C° 0.1 mm 4 mps 732 mmHg 75%
    21:00 0°C° 0 mm 4 mps 733 mmHg 77%
    22:00 +1°C° 0 mm 3 mps 733 mmHg 78%
    23:00 0°C° 0 mm 3 mps 734 mmHg 80%

    16 December, Saturday

    Time Temperature Precipitation Wind Pressure Humidity
    00:00 0°C° 0 mm 3 mps 734 mmHg 81%
    01:00 +1°C° 0 mm 2 mps 734 mmHg 82%
    02:00 +1°C° 0 mm 2 mps 734 mmHg 83%
    03:00 +1°C° 0 mm 2 mps 734 mmHg 84%
    04:00 +1°C° 0 mm 2 mps 734 mmHg 84%
    05:00 +1°C° 0 mm 2 mps 734 mmHg 84%
    06:00 -1°C° 0 mm 2 mps 734 mmHg 84%
    07:00 -1°C° 0 mm 2 mps 734 mmHg 85%
    08:00 -1°C° 0 mm 2 mps 735 mmHg 85%
    09:00 0°C° 0 mm 3 mps 735 mmHg 81%
    10:00 0°C° 0 mm 3 mps 735 mmHg 77%
    11:00 0°C° 0 mm 4 mps 736 mmHg 73%
    12:00 0°C° 0 mm 4 mps 736 mmHg 72%
    13:00 +1°C° 0 mm 4 mps 736 mmHg 71%
    14:00 +1°C° 0 mm 5 mps 737 mmHg 70%
    15:00 +1°C° 0 mm 4 mps 737 mmHg 74%
    16:00 0°C° 0 mm 4 mps 738 mmHg 77%
    17:00 0°C° 0 mm 4 mps 738 mmHg 81%
    18:00 -1°C° 0 mm 4 mps 739 mmHg 82%
    19:00 -1°C° 0 mm 4 mps 739 mmHg 83%
    20:00 -1°C° 0 mm 4 mps 740 mmHg 84%
    21:00 -1°C° 0 mm 4 mps 740 mmHg 85%
    22:00 -1°C° 0 mm 4 mps 741 mmHg 86%
    23:00 -2°C° 0 mm 4 mps 741 mmHg 86%

    17 December, Sunday

    Time Temperature Precipitation Wind Pressure Humidity
    00:00 -2°C° 0 mm 4 mps 741 mmHg 86%
    01:00 -2°C° 0 mm 4 mps 742 mmHg 85%
    02:00 -2°C° 0 mm 4 mps 742 mmHg 85%
    03:00 -2°C° 0 mm 4 mps 742 mmHg 85%
    04:00 -2°C° 0 mm 4 mps 743 mmHg 85%
    05:00 -2°C° 0 mm 4 mps 743 mmHg 86%
    06:00 -2°C° 0 mm 3 mps 743 mmHg 86%
    07:00 -2°C° 0 mm 3 mps 744 mmHg 87%
    08:00 -2°C° 0 mm 3 mps 744 mmHg 87%
    09:00 -1°C° 0 mm 3 mps 745 mmHg 84%
    10:00 0°C° 0 mm 3 mps 745 mmHg 80%
    11:00 -1°C° 0 mm 4 mps 745 mmHg 76%
    12:00 0°C° 0 mm 4 mps 745 mmHg 75%
    13:00 +1°C° 0 mm 3 mps 746 mmHg 73%
    14:00 +1°C° 0 mm 3 mps 746 mmHg 71%
    15:00 +1°C° 0 mm 3 mps 746 mmHg 74%
    16:00 +1°C° 0 mm 2 mps 746 mmHg 77%
    17:00 +1°C° 0 mm 2 mps 747 mmHg 80%
    18:00 -1°C° 0 mm 2 mps 747 mmHg 81%
    19:00 -1°C° 0 mm 2 mps 748 mmHg 81%
    20:00 -1°C° 0 mm 2 mps 748 mmHg 82%
    21:00 -1°C° 0 mm 2 mps 748 mmHg 81%
    22:00 -1°C° 0 mm 2 mps 749 mmHg 80%
    23:00 -1°C° 0 mm 2 mps 749 mmHg 79%
    Show more